[[{"header":{"parameterUnit":"m.s-1","parameterCategory":1,"la1":30.2991,"la2":30.254,"lo1":-89.0895,"lo2":-89.0444,"dy":0.0017,"dx":0.0017,"nx":28,"ny":28,"refTime":"2025-09-14T09:00:00:Z","depth":0,"parameterNumber":2,"parameterNumberName":"U-component_of_WINDS"},"data":[0,0,0,0,0,0,0,0,0,0,0,0,0,0,0,0,0,0,0,0,0,0,0,0,0,0,0,0,0,0,0,0,0,0,0,0,0,0,0,0,0,0,0,0,0,0,0,0,0,0,0,0,0,0,0,0,0,0,0.8719,0.8718,0,0.8617,0.8616,0.8615,0.854,0.8539,0.8538,0.8538,0.8435,0.8432,0.843,0,0,0,0,0,0,0,0,0,0,0,0,0,0.8847,0.8845,0.8719,0.8718,0.8717,0.8617,0.8616,0.8615,0.854,0.8539,0.8538,0.8537,0.8435,0.8433,0.843,0,0,0,0,0,0,0,0,0,0,0,0,0,0.8773,0.8844,0.8719,0.8667,0.8662,0.8618,0.8616,0.8614,0.854,0.8539,0.8538,0.8537,0.8436,0.8433,0.843,0.843,0,0,0.842,0.8419,0,0,0,0,0,0,0,0,0.8777,0.8768,0.8676,0.8671,0.8664,0.859,0.8623,0.8552,0.854,0.8586,0.8538,0.8537,0.8487,0.848,0.8463,0.8425,0.8421,0.842,0.8418,0.8416,0.8416,0,0,0,0,0,0,0,0.8782,0.8772,0.8679,0.8675,0.8668,0.8648,0.8637,0.8609,0.8544,0.8582,0.8576,0.8565,0.8484,0.8466,0.846,0.8419,0.842,0.8417,0.8415,0.8414,0.837,0.8371,0,0,0,0,0,0,0.8796,0.8777,0.8682,0.8676,0.8719,0.8647,0.8634,0.8615,0.8544,0.8532,0.8566,0.8562,0.8472,0.8464,0.8456,0.8447,0.8416,0.8413,0.8412,0.8369,0.837,0.8371,0,0,0,0,0,0,0.8799,0.8788,0.8686,0.8725,0.871,0.8646,0.8625,0.8613,0.8596,0.8532,0.8519,0.856,0.8471,0.846,0.8435,0.8443,0.8412,0.8409,0.8368,0.8369,0.837,0.8432,0,0,0,0,0,0,0.8803,0.879,0.879,0.8725,0.8709,0.8668,0.8626,0.8612,0.859,0.8584,0.8523,0.8512,0.8469,0.8441,0.8432,0.8438,0.8407,0.8367,0.8369,0.837,0.8429,0.8436,0.8441,0,0,0,0,0,0.8808,0.8813,0.879,0.8779,0.8707,0.8669,0.8659,0.861,0.8591,0.859,0.8548,0.8514,0.8443,0.8439,0.8429,0.8433,0.8367,0.8368,0.837,0.8427,0.8434,0.8441,0,0,0,0,0,0,0.8882,0.8804,0.8778,0.8762,0.8723,0.8657,0.8654,0.862,0.8586,0.8581,0.8522,0.8509,0.8489,0.8459,0.8455,0.8426,0.84,0.84,0.8447,0.8454,0.8459,0.8466,0.8404,0,0,0,0,0,0.8896,0.8872,0.8805,0.8797,0.8779,0.872,0.8701,0.8666,0.8623,0.8606,0.8562,0.8522,0.8489,0.847,0.8438,0.8425,0.8408,0.8422,0.8428,0.8433,0.8433,0.8419,0.8424,0.8376,0.8376,0.8376,0,0,0.8926,0.888,0.8869,0.8811,0.8776,0.875,0.8706,0.8683,0.8662,0.8603,0.8575,0.8541,0.8492,0.8471,0.846,0.8445,0.8442,0.8435,0.844,0.8437,0.8421,0.8426,0.843,0.8378,0.8377,0.8377,0,0,0.8966,0.8931,0.8918,0.8883,0.883,0.879,0.8787,0.8725,0.87,0.8671,0.8624,0.8599,0.8547,0.8511,0.8487,0.8509,0.8475,0.85,0.8529,0.8516,0.852,0.8523,0.8528,0.853,0.85,0.8501,0.8501,0,0.901,0.897,0.8916,0.8894,0.8868,0.8811,0.8796,0.8765,0.8705,0.8688,0.8672,0.8601,0.8564,0.8533,0.8537,0.8521,0.8513,0.8507,0.8524,0.8526,0.8528,0.8532,0.8534,0.8504,0.8503,0.8503,0.8503,0,0.9024,0.8997,0.8994,0.8934,0.8908,0.8891,0.8832,0.8812,0.8779,0.874,0.8709,0.8661,0.8616,0.8606,0.8574,0.8568,0.856,0.8535,0.8507,0.8537,0.8539,0.854,0.8508,0.8507,0.8506,0.8505,0,0,0.911,0.9018,0.9018,0.8988,0.8923,0.8901,0.8879,0.8833,0.8815,0.8775,0.8753,0.8707,0.8682,0.8654,0.8617,0.8606,0.8621,0.8581,0.8579,0.8588,0.8607,0.8626,0.8628,0.8598,0.8598,0.8598,0.8611,0,0.9138,0.9095,0.9044,0.9018,0.899,0.8933,0.8913,0.887,0.8833,0.8802,0.8761,0.8728,0.8699,0.868,0.8667,0.8622,0.8624,0.8621,0.8575,0.8574,0.8588,0.863,0.865,0.8664,0.8612,0.8612,0.8612,0,0.9166,0.9126,0.9096,0.903,0.9016,0.8999,0.8951,0.8924,0.8873,0.8845,0.8812,0.8771,0.8742,0.8718,0.8676,0.8675,0.8653,0.8627,0.8627,0.862,0.8594,0.8622,0.8668,0.8669,0.8613,0.8613,0.8613,0,0.9227,0.9166,0.9139,0.9116,0.9039,0.9028,0.8995,0.8943,0.8917,0.8875,0.8857,0.8812,0.8787,0.8753,0.87,0.8688,0.8662,0.8635,0.8637,0.8638,0.8633,0.8634,0.8675,0.8623,0.8623,0.8623,0.8623,0,0.9263,0.9246,0.9165,0.9149,0.9127,0.9068,0.9048,0.901,0.8963,0.8937,0.8886,0.8862,0.8794,0.8762,0.872,0.8689,0.8679,0.8655,0.8644,0.8659,0.8661,0.8643,0.864,0.8623,0.8623,0.8623,0.8623,0,0.9328,0.9273,0.9239,0.9168,0.9149,0.9136,0.9074,0.9055,0.9013,0.898,0.8969,0.8903,0.8861,0.8805,0.8747,0.8719,0.8692,0.8676,0.8709,0.8702,0.8706,0.8706,0.8735,0.8734,0.8685,0.8686,0.8686,0,0.9353,0.9338,0.9265,0.9243,0.9211,0.9177,0.915,0.909,0.9063,0.9002,0.8989,0.8943,0.8903,0.8839,0.8785,0.8739,0.872,0.8733,0.8713,0.8727,0.8717,0.8718,0.8714,0.8738,0.8739,0.874,0.874,0,0.9403,0.9375,0.9338,0.929,0.9258,0.9218,0.9175,0.916,0.9091,0.9063,0.9019,0.8988,0.8927,0.8881,0.8827,0.8792,0.8753,0.8747,0.8744,0.8759,0.8777,0.8764,0.872,0.8747,0.8746,0.8746,0.8745,0.8745,0.9446,0.9429,0.9373,0.9332,0.9293,0.9253,0.923,0.9184,0.9147,0.9092,0.9058,0.9015,0.896,0.8884,0.885,0.8814,0.8799,0.8796,0.8795,0.8795,0.8798,0.8784,0.8804,0.8804,0.8803,0.8803,0.8803,0,0.949,0.9451,0.9414,0.9354,0.9321,0.9288,0.9237,0.9212,0.9174,0.9126,0.9087,0.9035,0.8989,0.893,0.888,0.8862,0.8843,0.8851,0.8851,0.8842,0.8816,0.8822,0.8867,0.8867,0.8867,0.8867,0.8867,0.8867,0.9509,0.9477,0.9443,0.939,0.935,0.9307,0.9281,0.9243,0.9204,0.9147,0.9109,0.9071,0.9017,0.8962,0.8917,0.8901,0.8883,0.8896,0.8874,0.885,0.8845,0.8839,0.8844,0.8893,0.8893,0.8903,0.8903,0.8903]},{"header":{"parameterUnit":"m.s-1","parameterCategory":1,"la1":30.2991,"la2":30.254,"lo1":-89.0895,"lo2":-89.0444,"dy":0.0017,"dx":0.0017,"nx":28,"ny":28,"refTime":"2025-09-14T09:00:00:Z","depth":0,"parameterNumber":3,"parameterNumberName":"V-component_of_WINDS"},"data":[0,0,0,0,0,0,0,0,0,0,0,0,0,0,0,0,0,0,0,0,0,0,0,0,0,0,0,0,0,0,0,0,0,0,0,0,0,0,0,0,0,0,0,0,0,0,0,0,0,0,0,0,0,0,0,0,0,0,0.9719,0.9721,0,0.9867,0.9869,0.9871,0.9938,0.9938,0.9938,0.9938,1.0084,1.0088,1.0092,0,0,0,0,0,0,0,0,0,0,0,0,0,0.9488,0.9492,0.9719,0.9721,0.9723,0.9867,0.9869,0.9871,0.9938,0.9938,0.9938,0.9937,1.0083,1.0088,1.0092,0,0,0,0,0,0,0,0,0,0,0,0,0,0.9607,0.9493,0.9719,0.9774,0.978,0.9867,0.9869,0.9872,0.9938,0.9938,0.9938,0.9937,1.0081,1.0087,1.0093,1.0135,0,0,1.0112,1.0114,0,0,0,0,0,0,0,0,0.96,0.9616,0.9764,0.977,0.9777,0.9884,0.9842,0.996,0.9938,0.9878,0.9938,0.9937,1.0017,1.0029,1.0057,1.0142,1.0148,1.0112,1.0116,1.0118,1.012,0,0,0,0,0,0,0,0.9592,0.961,0.9777,0.9766,0.9774,0.9789,0.9806,0.9864,0.9947,0.9883,0.9888,0.9905,1.0021,1.0051,1.0061,1.015,1.0112,1.0117,1.0121,1.0124,1.0275,1.0275,0,0,0,0,0,0,0.9576,0.9602,0.9773,0.9782,0.9687,0.9793,0.9812,0.985,0.9946,0.9961,0.9905,0.9908,1.0041,1.0054,1.0066,1.0121,1.0118,1.0124,1.0128,1.0275,1.0275,1.0276,0,0,0,0,0,0,0.957,0.959,0.9767,0.9694,0.9717,0.9798,0.9839,0.9853,0.9883,0.9963,0.9978,0.9921,1.0041,1.0058,1.0117,1.0127,1.0127,1.0132,1.0274,1.0275,1.0275,1.0231,0,0,0,0,0,0,0.9564,0.9588,0.9606,0.9694,0.9721,0.9817,0.984,0.9856,0.9894,0.9898,0.9982,0.9995,1.0042,1.0108,1.0123,1.0135,1.0137,1.0274,1.0274,1.0275,1.0232,1.023,1.0228,0,0,0,0,0,0.9555,0.9587,0.9607,0.9627,0.9746,0.9818,0.9833,0.9888,0.9894,0.9912,0.9964,0.9993,1.0123,1.0113,1.0131,1.0145,1.0273,1.0274,1.0275,1.0233,1.0231,1.0229,0,0,0,0,0,0,0.9497,0.9599,0.9623,0.9684,0.9742,0.9829,0.9854,0.9884,0.994,0.9941,1.0005,1.0023,1.0077,1.0117,1.0104,1.019,1.0201,1.0205,1.0162,1.0161,1.0159,1.0149,1.0142,0,0,0,0,0,0.9491,0.9543,0.9629,0.9675,0.9703,0.9773,0.9806,0.9843,0.9905,0.9929,0.9985,1.0042,1.0096,1.0131,1.0185,1.0238,1.0256,1.0256,1.0254,1.0252,1.0255,1.0286,1.0286,1.0278,1.0278,1.0278,0,0,0.948,0.9543,0.9571,0.9665,0.9714,0.9764,0.9793,0.9845,0.9883,0.9937,0.9997,1.004,1.0108,1.0164,1.0191,1.0199,1.0261,1.0253,1.0251,1.0256,1.0286,1.0287,1.0288,1.0279,1.0279,1.0279,0,0,0.9486,0.9539,0.9583,0.9631,0.9706,0.9752,0.9762,0.9845,0.9876,0.9938,0.9979,1.0023,1.0115,1.0162,1.0197,1.0219,1.0247,1.0234,1.0225,1.0254,1.0254,1.0255,1.0263,1.0265,1.0237,1.0237,1.0237,0,0.9463,0.9542,0.9601,0.9651,0.969,0.9743,0.9786,0.983,0.9917,0.9943,0.995,1.0066,1.0115,1.0183,1.0188,1.0215,1.0228,1.0226,1.025,1.0251,1.0253,1.0261,1.0263,1.0235,1.0235,1.0235,1.0236,0,0.9509,0.9564,0.959,0.9675,0.9716,0.9763,0.9827,0.9862,0.9894,0.9939,1.0,1.0061,1.0128,1.0147,1.0179,1.0218,1.0221,1.0238,1.025,1.0251,1.0259,1.0263,1.0232,1.0233,1.0233,1.0234,0,0,0.9484,0.96,0.9609,0.9648,0.9733,0.9775,0.9823,0.989,0.9919,0.9976,1.0017,1.0093,1.0109,1.015,1.0187,1.0212,1.0225,1.0226,1.0229,1.0224,1.0271,1.0259,1.0261,1.0243,1.0244,1.0245,1.0266,0,0.9502,0.9593,0.9646,0.9714,0.9764,0.9813,0.9855,0.991,0.9953,1.0,1.0046,1.0099,1.0116,1.0141,1.0168,1.0217,1.0235,1.0216,1.0281,1.0283,1.0264,1.0266,1.0253,1.027,1.0269,1.027,1.0271,0,0.9536,0.9594,0.9667,0.9746,0.9769,0.9806,0.9871,0.9916,0.9979,1.0008,1.0052,1.009,1.014,1.0147,1.0217,1.0203,1.0232,1.026,1.0262,1.027,1.0277,1.0275,1.0276,1.0279,1.0276,1.0276,1.0275,0,0.951,0.9606,0.9663,0.9694,0.9788,0.9812,0.9852,0.9915,0.9952,1.0008,1.0032,1.0092,1.0125,1.017,1.0222,1.0222,1.0286,1.0297,1.031,1.0309,1.0322,1.0321,1.0329,1.034,1.034,1.034,1.0339,0,0.9525,0.9568,0.9653,0.9687,0.9736,0.9796,0.9842,0.9885,0.994,0.9983,1.0028,1.0066,1.0132,1.0178,1.0219,1.027,1.0284,1.0308,1.0318,1.0305,1.0302,1.0325,1.0325,1.034,1.034,1.034,1.034,0,0.9505,0.9564,0.9629,0.9712,0.9733,0.9766,0.9836,0.987,0.9915,0.9968,0.9983,1.0052,1.0109,1.0165,1.024,1.0267,1.0317,1.0331,1.0297,1.0303,1.0313,1.0311,1.0337,1.0343,1.0348,1.0348,1.0348,0,0.9511,0.9545,0.9632,0.9665,0.9704,0.9756,0.9793,0.9852,0.9889,0.9963,0.9988,1.0048,1.01,1.0187,1.0243,1.03,1.0316,1.0321,1.0325,1.0309,1.0316,1.0314,1.0317,1.0319,1.0319,1.0318,1.0318,0,0.9515,0.9543,0.9596,0.966,0.9704,0.9757,0.981,0.9834,0.9903,0.9941,1.0001,1.004,1.0118,1.0176,1.024,1.0279,1.031,1.0316,1.0323,1.0309,1.0288,1.03,1.0293,1.0316,1.0316,1.0316,1.0316,1.0316,0.9509,0.9542,0.9608,0.9666,0.9713,0.9762,0.9798,0.9847,0.9898,0.9967,0.9998,1.0057,1.0118,1.0207,1.0245,1.0291,1.0299,1.0307,1.031,1.0311,1.0308,1.028,1.0302,1.0303,1.0303,1.0303,1.0303,0,0.9516,0.9561,0.9614,0.9688,0.9733,0.9759,0.982,0.9855,0.9907,0.9962,1.0012,1.0079,1.0136,1.0195,1.0255,1.028,1.0296,1.0294,1.0293,1.0301,1.0298,1.0287,1.028,1.028,1.028,1.028,1.028,1.028,0.9525,0.9582,0.9616,0.9696,0.974,0.98,0.9832,0.9877,0.9921,0.9995,1.0043,1.0082,1.0138,1.0202,1.0254,1.027,1.029,1.0284,1.0304,1.03,1.0301,1.0303,1.0293,1.0288,1.0288,1.0304,1.0304,1.0304]}]]